Location: �clusier
(49.9361°N, 2.7869°E)
Time: 22:40:04
(UTC+00:00)

Cosmos 2016 Rocket - Pass Details

Date: 16 June 2021
Orbit: 947 x 1000 km, 83.0° (Epoch: 02 August)

Event Time Altitude Azimuth Distance (km) Brightness Sun altitude
Rises 22:02:14 0° 348° (NNW) 3,633 8.7 -12.9°
Reaches altitude 10° 22:04:45 10° 345° (NNW) 2,682 7.7 -13.1°
Maximum altitude 22:10:46 62° 267° (W) 1,064 4.3 -13.5°
Enters shadow 22:16:01 14° 189° (S) 2,398 5.5 -13.8°
